| time (UTC) | temp F | wind direction | speed MPH | gust MPH | rain 1hr in | rain 24hr in | rain mn in | humidity % | barometer mb |
| 20260901055014 | 76 | 91 | 0.0 | 1.0 | 0.00 | 0.67 | 0.67 | 75 | 1016.7 |
| 20260901054525 | 76 | 91 | 0.0 | 1.0 | 0.00 | 0.67 | 0.67 | 75 | 1016.7 |
| 20260901054021 | 76 | 91 | 0.0 | 1.0 | 0.00 | 0.67 | 0.67 | 74 | 1016.6 |
| 20260901053516 | 76 | 91 | 0.0 | 3.0 | 0.00 | 0.67 | 0.67 | 73 | 1016.5 |
| 20260901053024 | 76 | 91 | 0.0 | 3.0 | 0.00 | 0.67 | 0.67 | 73 | 1016.4 |
| 20260901052518 | 76 | 90 | 0.0 | 3.0 | 0.00 | 0.67 | 0.67 | 73 | 1016.4 |
| 20260901052013 | 76 | 89 | 0.0 | 3.0 | 0.00 | 0.67 | 0.67 | 72 | 1016.4 |
| 20260901051528 | 76 | 88 | 0.0 | 4.0 | 0.00 | 0.67 | 0.67 | 72 | 1016.4 |
| 20260901051014 | 76 | 85 | 1.0 | 4.0 | 0.00 | 0.67 | 0.67 | 72 | 1016.4 |
| 20260901050517 | 76 | 71 | 1.0 | 4.0 | 0.00 | 0.67 | 0.67 | 72 | 1016.5 |
| 20260901050023 | 77 | 67 | 0.0 | 6.0 | 0.00 | 0.67 | 0.67 | 71 | 1016.6 |
| 20260901045522 | 77 | 58 | 2.0 | 8.0 | 0.00 | 0.67 | 0.67 | 71 | 1016.6 |
| 20260901045014 | 76 | 55 | 3.0 | 8.0 | 0.00 | 0.67 | 0.67 | 72 | 1016.7 |
| 20260901044523 | 76 | 44 | 3.0 | 6.0 | 0.00 | 0.67 | 0.67 | 72 | 1016.8 |
| 20260901044019 | 76 | 63 | 2.0 | 6.0 | 0.00 | 0.67 | 0.67 | 72 | 1016.7 |
| 20260901043517 | 76 | 65 | 2.0 | 6.0 | 0.00 | 0.67 | 0.67 | 72 | 1016.7 |
| 20260901043026 | 76 | 63 | 1.0 | 6.0 | 0.00 | 0.67 | 0.67 | 72 | 1016.7 |
| 20260901042520 | 76 | 41 | 1.0 | 6.0 | 0.00 | 0.67 | 0.67 | 72 | 1016.6 |
| 20260901042016 | 76 | 77 | 1.0 | 5.0 | 0.00 | 0.67 | 0.67 | 72 | 1016.5 |
| 20260901041527 | 76 | 85 | 0.0 | 6.0 | 0.00 | 0.67 | 0.67 | 72 | 1016.4 |
| 20260901041017 | 76 | 84 | 0.0 | 6.0 | 0.00 | 0.67 | 0.67 | 72 | 1016.5 |
| 20260901040512 | 76 | 65 | 1.0 | 4.0 | 0.00 | 0.67 | 0.67 | 72 | 1016.5 |
| 20260901040035 | 76 | 84 | 0.0 | 4.0 | 0.00 | 0.67 | 0.67 | 71 | 1016.5 |
| 20260901035517 | 76 | 82 | 0.0 | 4.0 | 0.00 | 0.67 | 0.67 | 71 | 1016.5 |
| 20260901035016 | 76 | 67 | 0.0 | 3.0 | 0.00 | 0.67 | 0.67 | 71 | 1016.4 |
| 20260901034523 | 76 | 63 | 0.0 | 2.0 | 0.00 | 0.67 | 0.67 | 71 | 1016.3 |
| 20260901034018 | 76 | 62 | 0.0 | 4.0 | 0.00 | 0.67 | 0.67 | 71 | 1016.3 |
| 20260901033513 | 76 | 60 | 0.0 | 4.0 | 0.00 | 0.67 | 0.67 | 71 | 1016.3 |
| 20260901033032 | 76 | 32 | 0.0 | 3.0 | 0.00 | 0.67 | 0.67 | 71 | 1016.3 |
| 20260901032506 | 76 | 15 | 0.0 | 4.0 | 0.00 | 0.67 | 0.67 | 71 | 1016.2 |
| 20260901032004 | 76 | 15 | 1.0 | 4.0 | 0.00 | 0.67 | 0.67 | 71 | 1016.1 |
| 20260901031507 | 76 | 350 | 0.0 | 2.0 | 0.00 | 0.67 | 0.67 | 71 | 1016.0 |
| 20260901031003 | 76 | 350 | 0.0 | 2.0 | 0.00 | 0.67 | 0.67 | 71 | 1016.1 |
| 20260901030503 | 77 | 349 | 0.0 | 2.0 | 0.00 | 0.67 | 0.67 | 71 | 1016.1 |
| 20260901030004 | 77 | 349 | 0.0 | 2.0 | 0.00 | 0.67 | 0.67 | 71 | 1016.1 |
| 20260901025507 | 77 | 348 | 0.0 | 2.0 | 0.00 | 0.67 | 0.67 | 71 | 1015.9 |
| 20260901025004 | 77 | 347 | 0.0 | 2.0 | 0.00 | 0.67 | 0.67 | 71 | 1015.9 |
| 20260901024505 | 77 | 347 | 0.0 | 2.0 | 0.00 | 0.67 | 0.67 | 72 | 1015.7 |
| 20260901024006 | 77 | 345 | 0.0 | 2.0 | 0.00 | 0.67 | 0.67 | 71 | 1015.5 |
| 20260901023503 | 77 | 342 | 0.0 | 2.0 | 0.00 | 0.67 | 0.67 | 71 | 1015.4 |
| 20260901023004 | 77 | 340 | 0.0 | 2.0 | 0.00 | 0.67 | 0.67 | 71 | 1015.4 |
| 20260901022505 | 77 | 337 | 0.0 | 0.0 | 0.00 | 0.67 | 0.67 | 72 | 1015.4 |
| 20260901022003 | 77 | 337 | 0.0 | 1.0 | 0.00 | 0.67 | 0.67 | 72 | 1015.4 |
| 20260901021504 | 77 | 337 | 0.0 | 3.0 | 0.00 | 0.67 | 0.67 | 72 | 1015.2 |
| 20260901021002 | 77 | 337 | 0.0 | 3.0 | 0.00 | 0.67 | 0.67 | 72 | 1015.1 |
| 20260901020503 | 77 | 335 | 0.0 | 2.0 | 0.00 | 0.67 | 0.67 | 73 | 1015.1 |
| 20260901020004 | 78 | 332 | 0.0 | 0.0 | 0.00 | 0.67 | 0.67 | 74 | 1015.1 |
| 20260901015503 | 78 | 332 | 0.0 | 0.0 | 0.00 | 0.67 | 0.67 | 74 | 1014.8 |
| 20260901015004 | 78 | 360 | 0.0 | 0.0 | 0.00 | 0.67 | 0.67 | 74 | 1015.0 |
| 20260901014504 | 78 | 360 | 0.0 | 0.0 | 0.00 | 0.67 | 0.67 | 72 | 1014.9 |
| 20260901014004 | 78 | 330 | 0.0 | 0.0 | 0.00 | 0.67 | 0.67 | 72 | 1014.9 |
| 20260901013504 | 78 | 331 | 0.0 | 0.0 | 0.00 | 0.67 | 0.67 | 71 | 1014.7 |
| 20260901013008 | 78 | 331 | 0.0 | 0.0 | 0.00 | 0.67 | 0.67 | 71 | 1014.6 |
| 20260901012509 | 78 | 331 | 0.0 | 1.0 | 0.00 | 0.67 | 0.67 | 70 | 1014.5 |
| 20260901012003 | 79 | 331 | 0.0 | 1.0 | 0.00 | 0.67 | 0.67 | 69 | 1014.4 |
| 20260901011508 | 79 | 360 | 0.0 | 1.0 | 0.00 | 0.67 | 0.67 | 69 | 1014.4 |
| 20260901011004 | 79 | 360 | 0.0 | 2.0 | 0.00 | 0.67 | 0.67 | 68 | 1014.5 |
| 20260901010504 | 79 | 360 | 0.0 | 2.0 | 0.00 | 0.67 | 0.67 | 68 | 1014.5 |
| 20260901010007 | 80 | 360 | 0.0 | 0.0 | 0.00 | 0.67 | 0.67 | 68 | 1014.5 |
| 20260901005503 | 80 | 332 | 0.0 | 0.0 | 0.00 | 0.67 | 0.67 | 67 | 1014.5 |
| 20260901005003 | 80 | 334 | 0.0 | 1.0 | 0.00 | 0.67 | 0.67 | 67 | 1014.5 |
| 20260901004527 | 80 | 360 | 0.0 | 1.0 | 0.00 | 0.67 | 0.67 | 67 | 1014.4 |
| 20260901004002 | 80 | 360 | 0.0 | 0.0 | 0.00 | 0.67 | 0.67 | 67 | 1014.4 |
| 20260901003504 | 80 | 360 | 0.0 | 0.0 | 0.00 | 0.67 | 0.67 | 65 | 1014.4 |
| 20260901003008 | 80 | 80 | 0.0 | 3.0 | 0.00 | 0.67 | 0.67 | 64 | 1014.6 |
| 20260901002504 | 80 | 80 | 0.0 | 3.0 | 0.00 | 0.67 | 0.67 | 65 | 1014.5 |
| 20260901002004 | 80 | 360 | 1.0 | 3.0 | 0.00 | 0.67 | 0.67 | 64 | 1014.6 |
| 20260901001519 | 80 | 77 | 0.0 | 3.0 | 0.00 | 0.67 | 0.67 | 65 | 1014.6 |
| 20260901001003 | 80 | 70 | 0.0 | 3.0 | 0.00 | 0.67 | 0.67 | 65 | 1014.7 |
| 20260901000504 | 81 | 72 | 0.0 | 4.0 | 0.00 | 0.67 | 0.67 | 64 | 1014.6 |
| 20260901000013 | 81 | 69 | 1.0 | 4.0 | 0.00 | 0.67 | 0.67 | 65 | 1014.7 |
| 20260831235504 | 81 | 10 | 0.0 | 4.0 | 0.00 | 0.67 | 0.67 | 66 | 1014.7 |
| 20260831235007 | 81 | 7 | 0.0 | 4.0 | 0.00 | 0.67 | 0.67 | 66 | 1014.7 |
| 20260831234511 | 81 | 6 | 1.0 | 5.0 | 0.00 | 0.67 | 0.67 | 65 | 1014.8 |
| 20260831234004 | 80 | 4 | 2.0 | 6.0 | 0.00 | 0.67 | 0.67 | 65 | 1014.8 |
| 20260831233504 | 80 | 4 | 1.0 | 6.0 | 0.00 | 0.67 | 0.67 | 67 | 1014.8 |
| 20260831233008 | 80 | 4 | 1.0 | 8.0 | 0.00 | 0.67 | 0.67 | 66 | 1014.7 |
| 20260831232503 | 80 | 103 | 3.0 | 8.0 | 0.00 | 0.67 | 0.67 | 65 | 1014.7 |
| 20260831232004 | 80 | 78 | 3.0 | 7.0 | 0.00 | 0.67 | 0.67 | 65 | 1014.9 |
| 20260831231507 | 80 | 100 | 3.0 | 6.0 | 0.00 | 0.67 | 0.67 | 65 | 1015.0 |
| 20260831231004 | 80 | 84 | 3.0 | 6.0 | 0.00 | 0.67 | 0.67 | 66 | 1014.9 |
| 20260831230503 | 80 | 83 | 2.0 | 9.0 | 0.00 | 0.67 | 0.67 | 67 | 1015.0 |
| 20260831230010 | 80 | 68 | 3.0 | 9.0 | 0.00 | 0.67 | 0.67 | 66 | 1015.0 |
| 20260831225504 | 80 | 98 | 4.0 | 9.0 | 0.00 | 0.67 | 0.67 | 66 | 1015.1 |
| 20260831225004 | 80 | 63 | 4.0 | 12.0 | 0.00 | 0.67 | 0.67 | 68 | 1015.1 |
| 20260831224510 | 79 | 42 | 4.0 | 12.0 | 0.00 | 0.67 | 0.67 | 67 | 1015.1 |
| 20260831224006 | 80 | 98 | 5.0 | 10.0 | 0.00 | 0.67 | 0.67 | 67 | 1015.2 |
| 20260831223506 | 80 | 107 | 3.0 | 8.0 | 0.00 | 0.67 | 0.67 | 68 | 1015.4 |
| 20260831223008 | 80 | 89 | 2.0 | 6.0 | 0.00 | 0.67 | 0.67 | 70 | 1015.4 |
| 20260831222506 | 79 | 77 | 1.0 | 6.0 | 0.00 | 0.67 | 0.67 | 71 | 1015.5 |
| 20260831222004 | 79 | 82 | 0.0 | 6.0 | 0.00 | 0.67 | 0.67 | 72 | 1015.4 |
| 20260831221526 | 80 | 80 | 2.0 | 5.0 | 0.00 | 0.67 | 0.67 | 73 | 1015.6 |
| 20260831221004 | 80 | 66 | 0.0 | 5.0 | 0.00 | 0.67 | 0.67 | 75 | 1015.9 |
| 20260831220507 | 79 | 65 | 0.0 | 5.0 | 0.00 | 0.67 | 0.67 | 75 | 1015.9 |
| 20260831220035 | 78 | 69 | 1.0 | 5.0 | 0.00 | 0.67 | 0.67 | 76 | 1016.1 |
| 20260831215504 | 78 | 72 | 0.0 | 5.0 | 0.01 | 0.67 | 0.67 | 78 | 1016.3 |
| 20260831215005 | 77 | 70 | 1.0 | 6.0 | 0.01 | 0.67 | 0.67 | 81 | 1016.3 |
| 20260831214532 | 75 | 360 | 2.0 | 6.0 | 0.01 | 0.67 | 0.67 | 89 | 1016.4 |
| 20260831214004 | 74 | 105 | 2.0 | 6.0 | 0.01 | 0.67 | 0.67 | 92 | 1016.4 |
| 20260831213504 | 73 | 10 | 1.0 | 3.0 | 0.02 | 0.67 | 0.67 | 94 | 1016.6 |
| 20260831213010 | 72 | 360 | 0.0 | 6.0 | 0.02 | 0.67 | 0.67 | 94 | 1016.7 |
| 20260831212506 | 71 | 360 | 2.0 | 6.0 | 0.03 | 0.67 | 0.67 | 94 | 1016.8 |
| 20260831212005 | 70 | 360 | 0.0 | 4.0 | 0.04 | 0.67 | 0.67 | 94 | 1017.0 |
| 20260831211513 | 70 | 360 | 1.0 | 6.0 | 0.05 | 0.67 | 0.67 | 94 | 1017.1 |
| 20260831211003 | 70 | 360 | 1.0 | 6.0 | 0.05 | 0.67 | 0.67 | 94 | 1017.2 |
| 20260831210503 | 70 | 360 | 1.0 | 6.0 | 0.05 | 0.67 | 0.67 | 94 | 1017.4 |
| 20260831210011 | 70 | 360 | 1.0 | 10.0 | 0.06 | 0.67 | 0.67 | 94 | 1017.6 |
| 20260831205507 | 70 | 360 | 3.0 | 10.0 | 0.05 | 0.66 | 0.66 | 94 | 1017.6 |
| 20260831205007 | 69 | 4 | 5.0 | 13.0 | 0.07 | 0.66 | 0.66 | 94 | 1017.5 |
| 20260831204511 | 69 | 4 | 5.0 | 13.0 | 0.09 | 0.66 | 0.66 | 94 | 1017.6 |
| 20260831204006 | 69 | 3 | 2.0 | 7.0 | 0.10 | 0.66 | 0.66 | 94 | 1018.0 |
| 20260831203505 | 69 | 4 | 2.0 | 7.0 | 0.09 | 0.65 | 0.65 | 94 | 1018.4 |
| 20260831203014 | 69 | 4 | 0.0 | 6.0 | 0.10 | 0.65 | 0.65 | 94 | 1018.7 |
| 20260831202508 | 69 | 4 | 2.0 | 9.0 | 0.10 | 0.64 | 0.64 | 94 | 1018.7 |
| 20260831202006 | 69 | 3 | 3.0 | 11.0 | 0.10 | 0.63 | 0.63 | 94 | 1018.8 |
| 20260831201526 | 69 | 3 | 1.0 | 11.0 | 0.10 | 0.62 | 0.62 | 93 | 1019.2 |
| 20260831201003 | 69 | 3 | 5.0 | 10.0 | 0.10 | 0.62 | 0.62 | 93 | 1019.1 |
| 20260831200507 | 69 | 4 | 4.0 | 9.0 | 0.11 | 0.62 | 0.62 | 93 | 1019.3 |
| 20260831200030 | 69 | 4 | 2.0 | 5.0 | 0.10 | 0.61 | 0.61 | 93 | 1019.5 |
| 20260831195506 | 69 | 4 | 2.0 | 5.0 | 0.12 | 0.61 | 0.61 | 93 | 1019.5 |
| 20260831195012 | 69 | 4 | 0.0 | 2.0 | 0.10 | 0.58 | 0.58 | 93 | 1019.8 |
| 20260831194514 | 69 | 4 | 0.0 | 2.0 | 0.09 | 0.57 | 0.57 | 93 | 1020.0 |
| 20260831194008 | 69 | 4 | 0.0 | 3.0 | 0.09 | 0.56 | 0.56 | 93 | 1020.1 |
| 20260831193508 | 69 | 4 | 0.0 | 5.0 | 0.09 | 0.56 | 0.56 | 93 | 1019.9 |
| 20260831193014 | 69 | 4 | 1.0 | 4.0 | 0.09 | 0.55 | 0.55 | 93 | 1020.0 |
| 20260831192512 | 69 | 4 | 1.0 | 4.0 | 0.11 | 0.54 | 0.54 | 93 | 1020.0 |
| 20260831192007 | 69 | 4 | 1.0 | 4.0 | 0.12 | 0.52 | 0.52 | 93 | 1020.0 |
| 20260831191515 | 69 | 8 | 0.0 | 2.0 | 0.13 | 0.52 | 0.52 | 93 | 1020.0 |
| 20260831191006 | 69 | 8 | 0.0 | 2.0 | 0.14 | 0.52 | 0.52 | 93 | 1019.9 |
| 20260831190509 | 69 | 8 | 0.0 | 3.0 | 0.18 | 0.51 | 0.51 | 93 | 1020.0 |
| 20260831190016 | 69 | 8 | 0.0 | 3.0 | 0.18 | 0.51 | 0.51 | 93 | 1020.1 |
| 20260831185508 | 69 | 8 | 0.0 | 3.0 | 0.16 | 0.49 | 0.49 | 93 | 1020.1 |
| 20260831185009 | 68 | 8 | 1.0 | 3.0 | 0.17 | 0.49 | 0.49 | 93 | 1020.2 |
| 20260831184522 | 68 | 8 | 0.0 | 3.0 | 0.16 | 0.48 | 0.48 | 93 | 1020.1 |
| 20260831184007 | 68 | 360 | 0.0 | 4.0 | 0.15 | 0.47 | 0.47 | 92 | 1020.1 |
| 20260831183507 | 68 | 9 | 0.0 | 4.0 | 0.18 | 0.47 | 0.47 | 92 | 1020.1 |
| 20260831183030 | 68 | 8 | 2.0 | 7.0 | 0.23 | 0.46 | 0.46 | 92 | 1020.3 |
| 20260831182505 | 68 | 8 | 3.0 | 7.0 | 0.22 | 0.43 | 0.43 | 91 | 1020.2 |
| 20260831182007 | 68 | 8 | 4.0 | 9.0 | 0.23 | 0.41 | 0.41 | 92 | 1020.5 |
| 20260831181519 | 68 | 7 | 3.0 | 13.0 | 0.23 | 0.39 | 0.39 | 92 | 1020.6 |
| 20260831181005 | 68 | 8 | 6.0 | 15.0 | 0.23 | 0.38 | 0.38 | 91 | 1020.1 |
| 20260831180508 | 68 | 8 | 10.0 | 15.0 | 0.18 | 0.33 | 0.33 | 91 | 1019.8 |
| 20260831180019 | 68 | 8 | 4.0 | 10.0 | 0.18 | 0.33 | 0.33 | 91 | 1020.1 |
| 20260831175505 | 68 | 8 | 3.0 | 10.0 | 0.19 | 0.33 | 0.33 | 90 | 1020.3 |
| 20260831175008 | 68 | 11 | 5.0 | 16.0 | 0.18 | 0.32 | 0.32 | 90 | 1020.0 |
| 20260831174522 | 69 | 9 | 5.0 | 16.0 | 0.18 | 0.32 | 0.32 | 89 | 1019.7 |
| 20260831174006 | 69 | 8 | 9.0 | 15.0 | 0.18 | 0.32 | 0.32 | 89 | 1019.7 |
| 20260831173508 | 69 | 8 | 8.0 | 14.0 | 0.15 | 0.29 | 0.29 | 88 | 1019.8 |
| 20260831173019 | 70 | 7 | 5.0 | 13.0 | 0.09 | 0.23 | 0.23 | 86 | 1020.0 |
| 20260831172503 | 70 | 8 | 6.0 | 13.0 | 0.07 | 0.21 | 0.21 | 85 | 1020.0 |
| 20260831172010 | 71 | 360 | 3.0 | 13.0 | 0.04 | 0.18 | 0.18 | 84 | 1019.6 |
| 20260831171520 | 72 | 360 | 8.0 | 14.0 | 0.02 | 0.16 | 0.16 | 82 | 1019.6 |
| 20260831171005 | 72 | 360 | 7.0 | 16.0 | 0.01 | 0.15 | 0.15 | 81 | 1019.8 |
| 20260831170508 | 73 | 8 | 6.0 | 16.0 | 0.01 | 0.15 | 0.15 | 79 | 1019.6 |
| 20260831170024 | 74 | 8 | 11.0 | 16.0 | 0.01 | 0.15 | 0.15 | 78 | 1019.2 |
| 20260831165504 | 75 | 8 | 5.0 | 14.0 | 0.00 | 0.14 | 0.14 | 77 | 1019.1 |
| 20260831165009 | 76 | 8 | 6.0 | 14.0 | 0.00 | 0.14 | 0.14 | 75 | 1019.1 |
| 20260831164519 | 77 | 8 | 7.0 | 14.0 | 0.00 | 0.14 | 0.14 | 71 | 1019.0 |
| 20260831164007 | 77 | 8 | 3.0 | 11.0 | 0.00 | 0.14 | 0.14 | 70 | 1018.9 |
| 20260831163509 | 77 | 8 | 2.0 | 4.0 | 0.00 | 0.14 | 0.14 | 72 | 1018.8 |
| 20260831163037 | 77 | 8 | 0.0 | 7.0 | 0.00 | 0.14 | 0.14 | 73 | 1018.6 |
| 20260831162510 | 77 | 8 | 1.0 | 7.0 | 0.00 | 0.14 | 0.14 | 73 | 1018.5 |
| 20260831162011 | 77 | 8 | 3.0 | 6.0 | 0.00 | 0.14 | 0.14 | 73 | 1018.3 |
| 20260831161520 | 77 | 8 | 2.0 | 8.0 | 0.00 | 0.14 | 0.14 | 74 | 1018.1 |
| 20260831161005 | 78 | 8 | 1.0 | 8.0 | 0.00 | 0.14 | 0.14 | 73 | 1018.2 |
| 20260831160511 | 78 | 13 | 1.0 | 3.0 | 0.00 | 0.14 | 0.14 | 73 | 1018.1 |
| 20260831160036 | 78 | 3 | 0.0 | 2.0 | 0.00 | 0.14 | 0.14 | 73 | 1018.0 |
| 20260831155505 | 78 | 3 | 0.0 | 5.0 | 0.00 | 0.14 | 0.14 | 73 | 1018.0 |
| 20260831155010 | 78 | 3 | 0.0 | 5.0 | 0.00 | 0.14 | 0.14 | 74 | 1017.8 |
| 20260831154552 | 78 | 4 | 3.0 | 8.0 | 0.00 | 0.14 | 0.14 | 74 | 1017.7 |
| 20260831154012 | 78 | 4 | 2.0 | 8.0 | 0.00 | 0.14 | 0.14 | 75 | 1017.6 |
| 20260831153512 | 77 | 8 | 1.0 | 5.0 | 0.00 | 0.14 | 0.14 | 77 | 1017.5 |
| 20260831153024 | 77 | 1 | 1.0 | 5.0 | 0.00 | 0.14 | 0.14 | 78 | 1017.5 |
| 20260831152508 | 76 | 5 | 0.0 | 3.0 | 0.00 | 0.14 | 0.14 | 78 | 1017.6 |
| 20260831152012 | 76 | 3 | 0.0 | 3.0 | 0.00 | 0.14 | 0.14 | 78 | 1017.6 |
| 20260831151524 | 75 | 3 | 0.0 | 3.0 | 0.00 | 0.14 | 0.14 | 79 | 1017.5 |
| 20260831151011 | 75 | 3 | 0.0 | 3.0 | 0.00 | 0.14 | 0.14 | 80 | 1017.3 |
| 20260831150517 | 75 | 3 | 0.0 | 3.0 | 0.00 | 0.14 | 0.14 | 81 | 1017.3 |
| 20260831150027 | 75 | 3 | 1.0 | 3.0 | 0.00 | 0.14 | 0.14 | 81 | 1017.3 |
| 20260831145508 | 75 | 3 | 1.0 | 4.0 | 0.00 | 0.14 | 0.14 | 82 | 1017.1 |
| 20260831145011 | 74 | 3 | 2.0 | 4.0 | 0.00 | 0.14 | 0.14 | 83 | 1017.0 |
| 20260831144525 | 74 | 360 | 0.0 | 4.0 | 0.00 | 0.14 | 0.14 | 84 | 1017.0 |
| 20260831144004 | 73 | 360 | 0.0 | 4.0 | 0.00 | 0.14 | 0.14 | 84 | 1016.8 |
| 20260831143512 | 73 | 7 | 0.0 | 6.0 | 0.00 | 0.14 | 0.14 | 84 | 1016.8 |
| 20260831143024 | 73 | 360 | 3.0 | 8.0 | 0.00 | 0.14 | 0.14 | 84 | 1016.6 |
| 20260831142506 | 73 | 4 | 3.0 | 7.0 | 0.00 | 0.14 | 0.14 | 84 | 1016.6 |
| 20260831142018 | 73 | 3 | 2.0 | 7.0 | 0.00 | 0.14 | 0.14 | 84 | 1016.6 |
| 20260831141528 | 73 | 360 | 3.0 | 7.0 | 0.00 | 0.14 | 0.14 | 83 | 1016.7 |
| 20260831141012 | 73 | 11 | 1.0 | 8.0 | 0.00 | 0.14 | 0.14 | 82 | 1016.7 |
| 20260831140513 | 73 | 360 | 3.0 | 8.0 | 0.00 | 0.14 | 0.14 | 81 | 1016.6 |
| 20260831140033 | 74 | 360 | 3.0 | 11.0 | 0.00 | 0.14 | 0.14 | 79 | 1016.4 |
| 20260831135512 | 74 | 360 | 4.0 | 13.0 | 0.00 | 0.14 | 0.14 | 77 | 1016.4 |
| 20260831135013 | 74 | 360 | 4.0 | 14.0 | 0.01 | 0.14 | 0.14 | 74 | 1016.3 |
| 20260831134520 | 74 | 360 | 6.0 | 14.0 | 0.01 | 0.14 | 0.14 | 75 | 1016.1 |
| 20260831134011 | 73 | 360 | 5.0 | 14.0 | 0.01 | 0.14 | 0.14 | 77 | 1016.2 |
| 20260831133511 | 72 | 360 | 5.0 | 12.0 | 0.01 | 0.14 | 0.14 | 79 | 1016.3 |
| 20260831133035 | 72 | 15 | 4.0 | 17.0 | 0.01 | 0.14 | 0.14 | 81 | 1016.3 |
| 20260831132512 | 71 | 360 | 5.0 | 17.0 | 0.01 | 0.14 | 0.14 | 83 | 1016.4 |
| 20260831132012 | 70 | 360 | 6.0 | 11.0 | 0.01 | 0.14 | 0.14 | 85 | 1016.3 |
| 20260831131530 | 70 | 360 | 3.0 | 9.0 | 0.01 | 0.14 | 0.14 | 87 | 1016.5 |
| 20260831131011 | 70 | 360 | 3.0 | 10.0 | 0.02 | 0.14 | 0.14 | 87 | 1016.5 |
| 20260831130516 | 69 | 360 | 5.0 | 10.0 | 0.04 | 0.14 | 0.14 | 88 | 1016.8 |
| 20260831130037 | 69 | 360 | 4.0 | 16.0 | 0.04 | 0.14 | 0.14 | 89 | 1017.1 |
| 20260831125512 | 69 | 360 | 5.0 | 16.0 | 0.05 | 0.14 | 0.14 | 89 | 1016.8 |
| 20260831125014 | 69 | 360 | 7.0 | 15.0 | 0.05 | 0.13 | 0.13 | 90 | 1016.6 |
| 20260831124531 | 69 | 9 | 7.0 | 13.0 | 0.06 | 0.13 | 0.13 | 90 | 1017.0 |
| 20260831124015 | 69 | 8 | 4.0 | 9.0 | 0.07 | 0.13 | 0.13 | 90 | 1017.7 |
| 20260831123512 | 69 | 10 | 5.0 | 11.0 | 0.10 | 0.13 | 0.13 | 90 | 1017.8 |
| 20260831123026 | 69 | 9 | 6.0 | 11.0 | 0.11 | 0.13 | 0.13 | 90 | 1017.5 |
| 20260831122518 | 70 | 9 | 4.0 | 12.0 | 0.13 | 0.13 | 0.13 | 90 | 1017.4 |
| 20260831122013 | 69 | 8 | 4.0 | 12.0 | 0.13 | 0.13 | 0.13 | 89 | 1017.1 |
| 20260831121524 | 70 | 9 | 6.0 | 12.0 | 0.13 | 0.13 | 0.13 | 89 | 1017.1 |
| 20260831121014 | 70 | 9 | 3.0 | 12.0 | 0.12 | 0.12 | 0.12 | 89 | 1017.4 |
| 20260831120514 | 70 | 8 | 6.0 | 13.0 | 0.10 | 0.10 | 0.10 | 88 | 1017.3 |
| 20260831120049 | 70 | 8 | 5.0 | 13.0 | 0.10 | 0.10 | 0.10 | 88 | 1017.4 |
| 20260831115524 | 70 | 8 | 3.0 | 11.0 | 0.09 | 0.09 | 0.09 | 87 | 1017.2 |
| 20260831115012 | 71 | 8 | 4.0 | 10.0 | 0.08 | 0.08 | 0.08 | 86 | 1017.0 |
| 20260831114524 | 71 | 8 | 4.0 | 11.0 | 0.07 | 0.07 | 0.07 | 85 | 1016.9 |
| 20260831114015 | 72 | 9 | 5.0 | 14.0 | 0.06 | 0.06 | 0.06 | 83 | 1016.6 |
| 20260831113516 | 72 | 8 | 7.0 | 16.0 | 0.03 | 0.03 | 0.03 | 80 | 1016.4 |
| 20260831113024 | 74 | 8 | 6.0 | 18.0 | 0.02 | 0.02 | 0.02 | 75 | 1016.4 |
| 20260831112516 | 76 | 7 | 6.0 | 18.0 | 0.00 | 0.00 | 0.00 | 70 | 1016.0 |
| 20260831112014 | 78 | 8 | 10.0 | 18.0 | 0.00 | 0.00 | 0.00 | 63 | 1015.6 |
| 20260831111524 | 80 | 360 | 9.0 | 20.0 | 0.00 | 0.00 | 0.00 | 60 | 1015.5 |
| 20260831111013 | 81 | 8 | 9.0 | 20.0 | 0.00 | 0.00 | 0.00 | 57 | 1015.4 |
| 20260831110514 | 82 | 360 | 5.0 | 10.0 | 0.00 | 0.00 | 0.00 | 55 | 1015.1 |
| 20260831110027 | 82 | 360 | 2.0 | 5.0 | 0.00 | 0.00 | 0.00 | 56 | 1014.8 |
| 20260831105514 | 82 | 11 | 0.0 | 2.0 | 0.00 | 0.00 | 0.00 | 56 | 1014.5 |
| 20260831105016 | 82 | 360 | 0.0 | 2.0 | 0.00 | 0.00 | 0.00 | 56 | 1014.3 |
| 20260831104523 | 82 | 360 | 0.0 | 1.0 | 0.00 | 0.00 | 0.00 | 56 | 1014.2 |
| 20260831104016 | 82 | 360 | 0.0 | 2.0 | 0.00 | 0.00 | 0.00 | 56 | 1014.1 |
| 20260831103513 | 82 | 360 | 0.0 | 2.0 | 0.00 | 0.00 | 0.00 | 55 | 1014.0 |
| 20260831103025 | 82 | 360 | 0.0 | 0.0 | 0.00 | 0.00 | 0.00 | 55 | 1014.0 |
| 20260831102515 | 82 | 360 | 0.0 | 1.0 | 0.00 | 0.00 | 0.00 | 55 | 1013.8 |
| 20260831102017 | 82 | 8 | 0.0 | 1.0 | 0.00 | 0.00 | 0.00 | 54 | 1013.8 |
| 20260831101524 | 82 | 11 | 0.0 | 2.0 | 0.00 | 0.00 | 0.00 | 54 | 1013.8 |
| 20260831101014 | 82 | 11 | 0.0 | 2.0 | 0.00 | 0.00 | 0.00 | 54 | 1013.8 |
| 20260831100512 | 82 | 360 | 0.0 | 2.0 | 0.00 | 0.00 | 0.00 | 54 | 1013.9 |
| 20260831100022 | 82 | 360 | 0.0 | 1.0 | 0.00 | 0.00 | 0.00 | 53 | 1013.9 |
| 20260831095516 | 82 | 360 | 0.0 | 1.0 | 0.00 | 0.00 | 0.00 | 54 | 1013.9 |
| 20260831095018 | 82 | 360 | 0.0 | 2.0 | 0.00 | 0.00 | 0.00 | 54 | 1013.8 |
| 20260831094523 | 82 | 360 | 0.0 | 2.0 | 0.00 | 0.00 | 0.00 | 54 | 1013.8 |
| 20260831094016 | 82 | 360 | 0.0 | 2.0 | 0.00 | 0.00 | 0.00 | 54 | 1013.8 |
| 20260831093514 | 82 | 8 | 1.0 | 2.0 | 0.00 | 0.00 | 0.00 | 54 | 1013.7 |
| 20260831093028 | 82 | 8 | 0.0 | 0.0 | 0.00 | 0.00 | 0.00 | 54 | 1013.7 |
| 20260831092503 | 82 | 8 | 0.0 | 0.0 | 0.00 | 0.00 | 0.00 | 54 | 1013.6 |
| 20260831092004 | 82 | 7 | 0.0 | 0.0 | 0.00 | 0.00 | 0.00 | 53 | 1013.7 |
| 20260831091601 | 82 | 7 | 0.0 | 0.0 | 0.00 | 0.00 | 0.00 | 53 | 1013.7 |
| 20260831091006 | 82 | 7 | 0.0 | 0.0 | 0.00 | 0.00 | 0.00 | 53 | 1013.8 |
| 20260831090501 | 82 | 7 | 0.0 | 0.0 | 0.00 | 0.00 | 0.00 | 53 | 1013.8 |
| 20260831090051 | 82 | 7 | 0.0 | 0.0 | 0.00 | 0.00 | 0.00 | 52 | 1013.9 |
| 20260831085503 | 82 | 7 | 0.0 | 0.0 | 0.00 | 0.00 | 0.00 | 53 | 1013.9 |
| 20260831085015 | 82 | 7 | 0.0 | 0.0 | 0.00 | 0.00 | 0.00 | 53 | 1013.9 |
| 20260831084528 | 83 | 7 | 0.0 | 2.0 | 0.00 | 0.00 | 0.00 | 53 | 1013.9 |
| 20260831084003 | 83 | 7 | 0.0 | 2.0 | 0.00 | 0.00 | 0.00 | 53 | 1013.9 |
| 20260831083500 | 83 | 7 | 0.0 | 0.0 | 0.00 | 0.00 | 0.00 | 52 | 1013.9 |
| 20260831083027 | 83 | 7 | 0.0 | 0.0 | 0.00 | 0.00 | 0.00 | 52 | 1013.9 |
| 20260831082504 | 83 | 8 | 0.0 | 0.0 | 0.00 | 0.00 | 0.00 | 52 | 1013.9 |
| 20260831082016 | 83 | 8 | 0.0 | 0.0 | 0.00 | 0.00 | 0.00 | 51 | 1014.0 |
| 20260831081523 | 84 | 8 | 0.0 | 0.0 | 0.00 | 0.00 | 0.00 | 51 | 1013.9 |
| 20260831081004 | 84 | 8 | 0.0 | 1.0 | 0.00 | 0.00 | 0.00 | 50 | 1014.0 |
| 20260831080516 | 84 | 7 | 0.0 | 2.0 | 0.00 | 0.00 | 0.00 | 50 | 1014.0 |
| 20260831080033 | 84 | 8 | 0.0 | 2.0 | 0.00 | 0.00 | 0.00 | 50 | 1013.9 |
| 20260831075517 | 84 | 8 | 0.0 | 1.0 | 0.00 | 0.00 | 0.00 | 50 | 1014.0 |
| 20260831075013 | 84 | 8 | 0.0 | 1.0 | 0.00 | 0.00 | 0.00 | 50 | 1014.0 |
| 20260831074524 | 84 | 7 | 0.0 | 2.0 | 0.00 | 0.00 | 0.00 | 50 | 1014.1 |
| 20260831074006 | 84 | 7 | 0.0 | 2.0 | 0.00 | 0.00 | 0.00 | 49 | 1014.2 |
| 20260831073513 | 84 | 7 | 0.0 | 2.0 | 0.00 | 0.00 | 0.00 | 49 | 1014.2 |
| 20260831073024 | 85 | 7 | 0.0 | 2.0 | 0.00 | 0.00 | 0.00 | 49 | 1014.1 |
| 20260831072505 | 85 | 7 | 0.0 | 0.0 | 0.00 | 0.00 | 0.00 | 48 | 1014.0 |
| 20260831072017 | 85 | 8 | 0.0 | 2.0 | 0.00 | 0.00 | 0.00 | 48 | 1014.0 |
| 20260831071523 | 85 | 8 | 0.0 | 2.0 | 0.00 | 0.00 | 0.00 | 48 | 1014.1 |
| 20260831071004 | 85 | 7 | 0.0 | 2.0 | 0.00 | 0.00 | 0.00 | 47 | 1014.1 |
| 20260831070519 | 85 | 7 | 0.0 | 3.0 | 0.00 | 0.00 | 0.00 | 47 | 1014.0 |
| 20260831070035 | 86 | 7 | 1.0 | 3.0 | 0.00 | 0.00 | 0.00 | 47 | 1014.1 |
| 20260831065502 | 86 | 7 | 0.0 | 4.0 | 0.00 | 0.00 | 0.00 | 47 | 1014.2 |
| 20260831065013 | 86 | 7 | 2.0 | 4.0 | 0.00 | 0.00 | 0.00 | 47 | 1014.2 |
| 20260831064534 | 86 | 7 | 2.0 | 4.0 | 0.00 | 0.00 | 0.00 | 47 | 1014.3 |
| 20260831064008 | 86 | 7 | 1.0 | 4.0 | 0.00 | 0.00 | 0.00 | 46 | 1014.3 |
| 20260831063513 | 86 | 8 | 1.0 | 6.0 | 0.00 | 0.00 | 0.00 | 47 | 1014.3 |
| 20260831063025 | 86 | 8 | 2.0 | 6.0 | 0.00 | 0.00 | 0.00 | 47 | 1014.3 |
| 20260831062504 | 86 | 8 | 1.0 | 4.0 | 0.00 | 0.00 | 0.00 | 47 | 1014.3 |
| 20260831062014 | 86 | 8 | 1.0 | 3.0 | 0.00 | 0.00 | 0.00 | 47 | 1014.3 |
| 20260831061529 | 86 | 8 | 0.0 | 2.0 | 0.00 | 0.00 | 0.00 | 47 | 1014.3 |
| 20260831061004 | 86 | 8 | 0.0 | 2.0 | 0.00 | 0.00 | 0.00 | 47 | 1014.3 |
| 20260831060516 | 86 | 8 | 0.0 | 2.0 | 0.00 | 0.00 | 0.00 | 46 | 1014.4 |
| 20260831060027 | 86 | 8 | 0.0 | 1.0 | 0.00 | 0.00 | 0.00 | 45 | 1014.3 |
| 20260831055503 | 87 | 8 | 0.0 | 2.0 | 0.00 | 0.00 | 0.00 | 45 | 1014.3 |